Wind_Speed
5 5 5 5 5 5 4 4 4 4 5 4 3 3 2 3 3 3 3 3 2 3 3 3 3 3 2 2 2 2 3 3 3 3 2 2 2 1 2 2 3 3 3 4 4 4 4 4 4
5 5 6 6 6 6 4 4 4 5 5 4 4 3 2 3 3 3 3 3 2 3 3 3 3 3 2 2 2 2 3 3 3 2 2 2 2 2 2 2 3 3 3 3 4 4 4 4 4
5 6 6 6 6 5 5 5 5 5 4 4 4 4 3 3 2 3 3 3 2 3 3 3 2 2 2 2 3 3 3 3 3 2 2 2 2 3 3 3 3 3 3 3 4 4 4 4 4
6 6 6 6 6 6 5 5 5 5 4 4 4 4 2 2 2 3 3 2 2 3 3 3 2 2 2 3 3 3 3 3 3 3 3 3 2 3 3 2 3 3 3 3 3 4 4 5 5
7 7 7 7 6 5 5 5 5 5 5 5 5 4 3 2 2 2 2 2 2 3 3 3 2 3 3 3 3 3 2 2 3 3 3 3 2 2 2 3 3 3 3 3 3 4 5 5 6
7 7 7 7 5 5 5 5 5 5 5 5 4 3 3 3 2 2 2 2 3 3 3 3 3 3 3 3 3 3 2 2 2 3 3 3 2 3 3 3 3 4 4 5 5 5 5 5 6
7 7 7 6 6 5 5 5 5 5 5 5 4 4 4 4 4 3 3 3 3 3 3 3 4 3 3 3 3 3 2 3 3 3 3 3 3 3 3 3 3 3 4 5 5 5 5 5 5
7 7 7 6 6 5 5 5 5 5 5 5 5 5 4 4 4 4 3 3 3 3 3 3 3 3 3 3 3 2 3 3 3 3 4 4 3 3 3 3 3 4 5 5 5 5 6 6 6
7 8 7 6 5 5 5 5 5 5 5 5 5 5 5 4 5 4 4 4 4 3 3 3 3 3 3 2 2 2 2 3 3 3 4 4 3 3 3 3 3 4 4 5 5 5 6 6 6
7 7 6 6 5 5 5 5 5 5 5 5 5 5 4 4 4 4 5 4 4 3 3 3 3 3 3 2 2 2 2 3 3 3 3 3 3 3 3 3 3 4 4 4 5 5 6 6 6
7 7 7 6 6 6 6 6 6 5 5 5 5 4 4 4 4 4 4 4 4 4 3 3 3 2 2 2 2 2 3 3 3 3 3 3 3 3 3 3 3 3 3 4 4 4 5 6 6
7 7 7 6 6 6 6 6 6 6 5 5 5 4 4 4 3 3 4 4 4 4 4 3 3 2 2 3 3 2 3 3 3 3 3 3 3 3 3 3 3 3 3 3 3 4 5 5 6
7 7 6 6 6 6 6 6 6 6 5 5 5 5 4 4 5 5 4 3 3 4 3 3 3 3 3 3 3 3 3 3 3 3 3 3 3 4 3 3 2 2 2 3 3 4 4 5 5
7 6 7 7 7 7 7 6 6 6 6 5 5 5 5 5 5 5 4 4 4 3 3 4 4 4 4 4 3 3 3 3 3 3 3 3 3 4 4 2 2 2 2 3 3 4 4 4 4
7 7 7 7 7 7 7 7 6 6 6 5 5 4 4 5 5 5 4 3 3 3 3 3 4 4 4 4 3 3 3 3 3 3 2 3 3 3 3 2 2 2 2 3 3 3 3 3 4
7 7 7 7 7 7 7 6 6 6 6 6 5 5 4 5 4 4 4 3 3 3 3 3 3 4 4 4 4 3 3 3 4 2 2 2 3 2 2 2 2 2 2 3 3 3 2 2 3
7 7 7 7 7 7 7 6 6 6 6 6 6 5 5 4 4 4 4 3 3 3 3 3 3 3 3 3 4 3 4 4 3 2 2 2 2 2 2 2 2 2 2 2 2 2 2 2 2
8 8 8 8 7 7 7 7 7 6 6 6 6 6 5 5 5 5 4 4 4 4 4 4 4 4 4 3 3 3 3 3 3 2 2 2 2 2 2 2 2 2 3 2 2 2 2 2 1
8 8 8 8 7 7 7 7 7 7 7 7 7 6 5 5 5 4 4 3 3 3 3 4 4 4 4 4 3 3 2 3 3 3 2 2 2 2 2 2 2 2 2 2 2 2 2 2 2
8 8 8 8 8 8 7 7 7 7 7 6 6 6 4 4 4 4 4 3 3 3 4 4 4 4 4 4 4 3 3 2 3 3 3 3 2 2 2 2 2 1 2 2 2 2 2 2 2
8 8 8 8 8 8 8 7 7 7 7 6 6 6 4 4 4 4 4 3 3 3 3 4 4 3 4 4 3 4 3 3 3 3 3 3 3 3 2 2 2 2 2 2 2 3 3 2 2
8 8 8 7 7 7 7 6 7 7 7 7 7 6 5 4 4 4 4 4 4 3 3 3 3 3 3 3 4 4 3 4 4 3 3 2 2 3 2 2 2 2 3 3 3 3 4 3 3
7 7 7 7 8 8 7 7 6 7 7 7 7 6 5 5 5 4 4 4 4 4 3 3 3 3 3 3 3 4 4 4 4 4 4 3 3 3 3 3 3 3 4 4 4 4 4 4 4
7 7 7 7 8 8 8 8 7 7 7 7 7 6 6 6 5 5 5 5 5 5 4 3 3 3 3 3 3 3 3 3 3 3 4 4 4 3 4 4 4 4 5 4 4 4 5 4 4
7 7 7 8 8 8 8 8 8 8 8 8 7 7 7 6 6 6 6 6 5 5 4 4 3 3 3 3 3 3 2 2 2 2 3 4 4 3 3 4 4 5 5 4 4 5 5 5 5
8 8 8 9 9 8 8 8 8 8 9 9 8 7 6 6 6 6 6 6 6 5 4 4 4 4 3 3 3 3 3 3 2 3 3 3 3 3 3 3 4 4 4 4 4 5 5 5 6
9 9 9 9 9 9 9 9 9 9 9 9 8 8 8 8 8 8 7 7 7 6 5 5 5 4 4 4 4 4 3 3 2 3 3 3 4 3 3 3 3 4 4 4 5 6 5 5 6
10 9 9 9 10 10 9 9 9 9 9 8 8 9 9 9 9 9 8 7 7 7 7 7 6 5 5 5 5 5 4 3 3 2 3 4 4 4 4 4 4 4 5 5 6 6 6 6 6
10 10 9 10 10 10 10 9 9 9 9 9 8 8 9 9 8 8 8 8 8 8 7 7 6 6 5 5 5 5 5 4 3 3 4 4 4 4 5 5 5 5 6 7 7 7 7 7 8
12 11 11 11 10 11 11 10 9 9 9 9 9 8 8 7 7 8 8 9 9 8 8 8 7 6 6 5 6 6 6 6 5 4 4 5 5 5 6 6 6 6 6 7 8 8 8 8 9
Wind_Direction
359 355 353 357 356 356 353 353 353 356 360 353 346 337 333 345 353 355 346 335 340 338 334 331 334 336 337 337 349 357 357 360 9 20 16 355 331 301 289 284 268 265 266 265 260 251 248 246 242
355 353 348 348 352 356 357 354 349 344 351 349 343 328 321 337 351 347 343 347 340 334 331 332 332 334 332 328 336 348 349 343 344 353 358 350 319 296 283 283 270 267 268 264 253 250 249 247 250
351 348 342 339 342 348 352 351 350 349 356 358 351 339 330 338 348 344 349 347 336 326 327 333 334 328 322 321 322 327 340 341 336 334 341 340 318 299 282 275 270 267 265 259 251 252 249 251 255
345 343 337 334 331 340 347 346 347 352 351 358 357 352 348 347 342 336 339 340 337 324 315 319 326 326 317 313 314 308 320 335 336 326 331 328 319 312 283 279 272 268 266 264 259 259 256 256 259
338 334 334 330 332 337 341 341 346 350 1 5 2 0 357 343 339 341 344 346 333 326 316 308 310 319 310 306 306 311 309 318 331 327 326 319 306 307 279 270 271 268 270 270 263 260 259 256 258
331 327 324 327 333 341 346 350 351 354 356 356 357 357 354 340 317 315 321 323 322 328 322 308 305 304 303 295 289 295 295 305 318 326 321 312 299 295 289 277 280 271 273 273 269 265 262 256 254
321 325 322 327 335 342 348 346 346 349 351 348 347 335 331 322 311 310 310 305 308 321 325 316 308 306 305 296 284 281 286 298 303 313 316 312 298 291 294 292 287 278 275 274 270 264 263 258 254
319 323 325 326 329 338 343 342 340 341 346 343 335 324 323 319 310 303 301 297 295 306 316 314 312 306 300 289 283 280 286 290 296 302 303 299 280 282 292 295 287 280 280 277 273 263 261 254 254
318 322 324 321 321 330 339 340 338 336 338 334 330 321 319 319 310 299 299 301 299 297 305 311 309 311 305 299 283 286 297 298 301 297 301 299 284 284 289 285 282 283 285 282 275 266 259 256 254
318 324 326 324 321 324 326 327 332 332 330 326 325 328 326 324 314 300 298 303 303 299 297 298 309 308 308 305 291 290 305 312 315 306 304 306 296 288 289 275 281 285 283 281 278 271 265 259 256
320 320 319 323 319 316 318 322 326 327 324 325 327 333 337 332 313 296 298 294 298 296 291 289 297 293 303 302 287 298 310 312 307 303 312 322 321 304 288 280 287 284 279 279 277 274 270 261 256
317 319 319 324 324 321 320 320 323 320 322 326 331 330 338 334 320 305 301 295 295 295 289 278 284 286 299 302 289 296 304 305 296 294 302 311 318 314 288 286 296 294 289 282 281 280 278 270 263
317 317 318 325 331 328 322 318 319 322 322 329 332 330 330 325 323 318 314 310 307 299 286 275 273 279 290 292 278 288 306 308 302 295 296 303 311 308 290 285 293 296 292 285 292 290 283 272 267
320 319 321 323 323 324 322 320 318 316 319 315 317 320 323 320 317 317 319 308 310 304 288 280 270 269 276 277 270 281 307 312 314 308 311 307 313 310 299 278 271 284 292 296 297 286 281 272 261
314 315 318 320 321 324 325 321 317 318 316 308 306 309 318 314 312 315 315 302 298 301 291 288 270 271 272 272 276 273 289 299 307 318 325 320 323 321 314 288 281 285 291 301 303 296 288 276 268
309 310 313 316 319 324 325 321 318 316 311 301 295 297 305 308 308 313 312 304 302 298 291 288 277 278 273 270 271 265 276 290 296 306 321 322 326 328 317 312 294 285 294 304 309 306 296 288 281
307 311 311 309 311 317 319 318 314 315 310 300 291 288 290 293 300 304 305 297 302 296 289 286 283 283 283 281 278 272 268 276 283 290 304 322 329 324 308 325 320 307 323 327 334 333 319 309 300
305 309 311 307 307 310 314 316 314 308 304 298 293 289 289 287 293 296 291 287 290 294 289 285 281 281 280 281 287 284 275 269 275 278 286 307 321 327 326 315 325 310 331 340 345 339 330 328 318
303 307 310 307 308 311 314 312 312 309 301 298 294 290 281 278 286 288 283 284 288 290 288 287 282 270 270 275 286 287 286 271 271 281 278 283 307 318 328 320 309 321 340 345 345 339 333 325 306
303 306 305 303 305 309 311 309 309 308 306 302 299 295 286 272 273 275 277 285 288 293 287 284 279 266 265 270 271 271 277 276 269 269 264 256 279 313 322 314 318 325 340 339 343 348 339 326 320
303 303 300 300 305 309 309 308 306 305 303 300 296 295 288 282 279 273 275 281 285 288 284 278 279 266 256 257 265 268 259 266 271 256 245 254 258 272 297 317 319 304 310 314 330 341 345 337 326
300 299 300 302 304 312 314 313 309 305 304 300 295 291 284 282 280 278 275 273 277 281 283 275 274 270 253 254 261 265 263 263 260 251 244 251 254 265 281 312 308 291 291 299 312 326 329 330 328
298 297 300 303 306 312 314 314 315 309 304 303 297 290 285 281 282 282 276 268 267 273 284 276 271 269 255 252 256 263 265 269 252 243 243 251 251 253 264 280 292 287 283 291 300 308 312 316 320
298 295 296 300 306 310 315 315 315 311 309 309 299 290 282 280 282 286 277 267 266 269 277 277 276 272 269 255 252 260 266 263 250 245 245 247 249 253 261 270 278 280 281 287 292 302 309 312 314
297 294 293 296 302 308 312 311 313 316 312 309 302 290 282 276 278 285 281 267 264 265 265 267 273 272 272 260 253 241 241 246 243 247 249 248 248 255 269 274 277 284 282 281 287 292 301 308 309
291 294 292 293 297 304 309 315 316 314 311 308 300 285 276 277 277 279 280 272 264 262 262 264 268 273 261 242 251 251 254 248 246 254 254 248 249 261 277 282 275 281 284 285 291 296 300 304 307
285 289 291 292 293 297 306 314 311 306 305 302 296 286 280 280 281 276 275 271 266 262 262 267 268 266 258 257 260 269 272 259 250 257 258 262 258 261 287 296 284 282 290 298 301 304 302 306 310
280 285 287 291 294 295 303 311 309 303 302 301 294 285 278 283 282 277 273 268 267 265 266 269 266 260 261 260 263 262 265 262 257 256 264 276 268 267 283 288 287 291 297 301 304 310 312 309 310
277 282 285 290 294 298 302 307 308 301 297 297 293 286 279 278 277 279 275 271 268 269 271 263 259 259 262 259 263 256 250 255 255 260 272 280 280 278 287 284 281 287 292 296 301 305 304 304 305
272 277 281 284 290 294 295 299 304 302 299 294 290 286 281 277 281 281 279 275 268 265 268 259 258 259 258 263 265 259 249 256 256 262 272 279 282 283 284 288 288 288 291 293 296 297 297 299 301
Height
5883 5883 5882 5882 5882 5881 5880 5880 5879 5878 5878 5877 5877 5876 5876 5876 5877 5878 5876 5874 5874 5874 5873 5873 5873 5872 5872 5872 5872 5872 5871 5871 5871 5871 5871 5872 5872 5872 5872 5872 5873 5873 5874 5874 5875 5875 5875 5876 5876
5883 5883 5883 5883 5882 5881 5881 5880 5879 5878 5878 5877 5876 5876 5875 5875 5875 5875 5874 5873 5873 5873 5873 5873 5873 5872 5872 5872 5872 5871 5871 5871 5871 5871 5871 5871 5871 5871 5871 5872 5872 5873 5873 5873 5874 5874 5874 5875 5875
5883 5883 5884 5883 5881 5881 5881 5880 5879 5878 5877 5876 5876 5875 5875 5874 5874 5874 5874 5873 5873 5873 5873 5873 5872 5872 5872 5871 5871 5871 5871 5870 5870 5870 5871 5871 5871 5871 5871 5871 5871 5872 5872 5872 5873 5873 5873 5874 5874
5884 5884 5884 5883 5881 5881 5880 5880 5879 5878 5877 5876 5876 5875 5874 5874 5874 5874 5873 5873 5873 5873 5873 5872 5872 5871 5871 5871 5871 5871 5870 5870 5870 5870 5870 5870 5870 5870 5870 5870 5870 5871 5871 5871 5872 5872 5872 5872 5873
5884 5884 5883 5882 5881 5881 5880 5879 5879 5878 5877 5876 5875 5875 5874 5874 5874 5873 5873 5873 5872 5872 5872 5872 5871 5871 5871 5870 5870 5870 5870 5870 5870 5870 5870 5870 5870 5869 5869 5869 5869 5870 5870 5870 5870 5870 5871 5871 5871
5884 5883 5883 5882 5881 5880 5880 5879 5878 5877 5877 5876 5875 5875 5874 5874 5873 5873 5873 5873 5872 5872 5871 5871 5871 5870 5870 5870 5870 5869 5869 5869 5869 5869 5869 5869 5869 5869 5868 5868 5868 5868 5869 5869 5869 5869 5869 5869 5870
5884 5883 5882 5881 5880 5880 5880 5879 5878 5877 5876 5876 5875 5874 5874 5873 5873 5873 5873 5872 5872 5871 5871 5870 5870 5870 5869 5869 5869 5869 5868 5868 5868 5868 5868 5868 5868 5868 5867 5867 5867 5867 5868 5868 5868 5868 5868 5868 5868
5883 5883 5881 5881 5880 5880 5879 5878 5878 5877 5876 5876 5875 5874 5873 5873 5872 5872 5872 5871 5871 5871 5870 5870 5869 5869 5869 5868 5868 5868 5868 5868 5868 5867 5867 5867 5867 5866 5866 5866 5866 5866 5866 5866 5866 5866 5866 5867 5867
5882 5883 5880 5880 5880 5879 5879 5878 5878 5877 5876 5875 5874 5874 5873 5872 5872 5871 5871 5871 5870 5870 5870 5869 5869 5868 5868 5868 5868 5868 5867 5867 5867 5866 5866 5866 5866 5865 5865 5865 5865 5865 5865 5865 5865 5865 5865 5865 5865
5881 5881 5880 5880 5879 5879 5878 5878 5877 5876 5876 5875 5874 5873 5872 5871 5871 5871 5870 5870 5869 5869 5869 5869 5868 5868 5868 5867 5867 5867 5867 5866 5866 5866 5865 5865 5865 5864 5864 5864 5864 5864 5863 5863 5863 5863 5864 5864 5864
5880 5880 5879 5879 5878 5878 5877 5877 5876 5876 5875 5874 5874 5873 5872 5871 5870 5870 5869 5869 5869 5868 5868 5868 5868 5868 5867 5867 5867 5867 5866 5866 5865 5865 5865 5864 5864 5863 5863 5863 5863 5863 5863 5862 5862 5862 5862 5862 5863
5880 5879 5878 5878 5877 5877 5877 5876 5876 5875 5874 5874 5873 5872 5872 5871 5870 5869 5868 5868 5868 5868 5868 5867 5867 5867 5867 5867 5866 5866 5866 5865 5865 5864 5864 5864 5863 5863 5862 5862 5862 5862 5862 5861 5861 5861 5861 5861 5861
5879 5878 5878 5877 5877 5876 5876 5875 5875 5874 5874 5873 5872 5872 5871 5871 5870 5869 5868 5867 5867 5867 5867 5866 5866 5866 5866 5866 5866 5865 5865 5864 5864 5864 5863 5863 5863 5862 5862 5861 5861 5861 5861 5861 5861 5860 5860 5860 5859
5878 5878 5877 5877 5876 5876 5875 5875 5874 5874 5873 5872 5872 5871 5871 5870 5869 5868 5868 5867 5867 5866 5866 5866 5866 5866 5866 5865 5865 5865 5864 5864 5863 5863 5863 5863 5862 5862 5861 5860 5860 5860 5860 5860 5860 5859 5859 5859 5858
5878 5878 5877 5876 5876 5875 5875 5874 5874 5873 5872 5872 5871 5871 5870 5869 5868 5868 5867 5867 5866 5866 5865 5865 5865 5865 5865 5865 5864 5864 5864 5863 5863 5862 5862 5862 5862 5861 5861 5860 5860 5860 5859 5859 5859 5858 5858 5858 5858
5877 5877 5877 5876 5875 5874 5876 5874 5873 5872 5872 5871 5870 5870 5869 5868 5867 5867 5867 5866 5865 5865 5865 5865 5864 5864 5864 5864 5864 5863 5863 5863 5863 5862 5862 5862 5862 5861 5861 5860 5860 5859 5859 5859 5858 5858 5857 5857 5857
5876 5876 5875 5875 5874 5874 5874 5873 5872 5871 5871 5870 5869 5869 5868 5867 5866 5866 5866 5865 5865 5864 5864 5864 5864 5863 5863 5863 5863 5863 5863 5862 5862 5862 5862 5862 5861 5861 5861 5860 5860 5859 5859 5858 5858 5858 5857 5857 5856
5876 5875 5874 5874 5873 5873 5872 5872 5871 5870 5869 5869 5868 5868 5867 5866 5865 5865 5864 5864 5864 5863 5863 5863 5863 5862 5862 5862 5862 5862 5862 5862 5862 5861 5861 5861 5861 5861 5860 5860 5859 5859 5859 5858 5858 5857 5857 5856 5856
5874 5874 5873 5873 5872 5872 5871 5870 5870 5869 5868 5868 5867 5866 5865 5865 5864 5864 5863 5863 5863 5862 5862 5862 5862 5862 5861 5861 5861 5861 5861 5861 5862 5861 5861 5861 5861 5860 5860 5860 5859 5859 5859 5858 5858 5857 5857 5856 5856
5873 5872 5872 5872 5871 5871 5870 5869 5869 5868 5867 5866 5865 5865 5864 5864 5863 5863 5863 5862 5862 5861 5861 5861 5861 5860 5860 5861 5861 5861 5861 5861 5861 5861 5861 5861 5860 5860 5860 5860 5859 5859 5859 5858 5858 5858 5857 5856 5856
5871 5871 5870 5870 5870 5869 5869 5869 5868 5867 5866 5865 5864 5863 5863 5863 5862 5862 5862 5861 5861 5860 5860 5860 5859 5859 5859 5860 5860 5860 5860 5860 5860 5860 5860 5860 5860 5860 5860 5859 5859 5859 5859 5858 5858 5857 5857 5856 5855
5870 5869 5869 5869 5869 5868 5868 5868 5867 5865 5865 5864 5863 5862 5862 5862 5861 5861 5861 5860 5860 5859 5859 5858 5858 5858 5858 5859 5859 5859 5859 5859 5859 5859 5859 5859 5859 5859 5859 5859 5859 5858 5858 5858 5858 5857 5857 5856 5855
5868 5868 5868 5867 5867 5867 5867 5866 5866 5864 5863 5862 5862 5861 5861 5860 5860 5860 5859 5859 5859 5858 5858 5858 5858 5858 5858 5858 5858 5858 5858 5858 5858 5858 5859 5858 5858 5858 5858 5858 5858 5858 5858 5858 5857 5857 5856 5856 5855
5867 5867 5867 5866 5866 5867 5866 5865 5864 5862 5862 5861 5860 5860 5859 5859 5859 5858 5858 5858 5857 5857 5857 5857 5857 5857 5857 5857 5857 5857 5857 5857 5857 5857 5857 5857 5857 5857 5857 5857 5857 5857 5857 5857 5856 5856 5856 5855 5854
5867 5867 5866 5865 5865 5865 5864 5863 5863 5861 5860 5859 5859 5858 5858 5857 5857 5857 5856 5856 5856 5856 5856 5856 5856 5856 5856 5856 5856 5856 5856 5856 5856 5856 5856 5856 5856 5856 5856 5856 5856 5856 5856 5856 5855 5855 5855 5854 5854
5865 5865 5866 5865 5864 5864 5863 5862 5862 5860 5859 5858 5857 5857 5856 5856 5856 5855 5855 5854 5855 5855 5855 5854 5855 5855 5855 5855 5855 5855 5855 5855 5855 5856 5856 5855 5855 5855 5855 5855 5855 5855 5855 5855 5854 5854 5854 5853 5853
5863 5863 5863 5863 5862 5862 5861 5861 5860 5858 5857 5856 5855 5855 5855 5854 5854 5854 5853 5853 5853 5853 5853 5853 5853 5853 5853 5854 5854 5854 5854 5854 5854 5854 5854 5855 5854 5854 5854 5854 5854 5854 5854 5854 5853 5853 5853 5852 5852
5862 5861 5861 5860 5860 5860 5860 5859 5858 5856 5856 5855 5854 5853 5853 5852 5852 5852 5851 5851 5851 5851 5851 5851 5852 5852 5852 5852 5852 5853 5853 5853 5854 5854 5854 5854 5854 5853 5853 5853 5853 5853 5853 5853 5852 5852 5852 5851 5850
5859 5859 5859 5858 5858 5858 5857 5859 5856 5855 5854 5853 5852 5851 5851 5850 5850 5850 5849 5849 5849 5849 5849 5850 5850 5850 5850 5851 5851 5851 5852 5852 5853 5853 5853 5853 5853 5853 5853 5852 5852 5852 5852 5852 5851 5851 5850 5850 5849
5856 5856 5856 5857 5856 5855 5855 5858 5854 5852 5851 5850 5850 5849 5848 5848 5848 5848 5847 5847 5847 5847 5847 5848 5848 5849 5849 5849 5850 5850 5850 5851 5851 5851 5852 5852 5851 5851 5851 5851 5851 5851 5851 5850 5850 5849 5848 5848 5847